Tracking 35048 objects as of 19-Aug-2026
HD Live streaming from Space Station
objects crossing your sky now

DRUMS

Track DRUMS now!
10-day predictions


NORAD ID: 49401
Int'l Code: 2021-102G
Launch date: November 9, 2021
Source: Japan (JPN)
Launch site: KAGOSHIMA SPACE CENTER UNIVERSITY OF TOKYO (KSCUT)
Your satellite tracking list
Your tracking list is empty




NASA's NSSDC Master Catalog

Two Line Element Set (TLE):
1 49401U 21102G   26231.04389029  .00004766  00000-0  21728-3 0  9999
2 49401  97.3261 266.4204 0015322  19.2934 340.8878 15.21012195263133
Source of the keplerian elements: AFSPC